Location: B?lite?ti
(46.2833°N, 22.7333°E)
Time: 04:50:33
(UTC+00:00)

CSL-04 Rocket - Pass Details

Date: 24 January 2021
Orbit: 806 x 860 km, 98.9° (Epoch: 26 February)

Event Time Altitude Azimuth Distance (km) Brightness Sun altitude
Rises 17:22:21 0° 160° (SSE) 3,358 6.7 -20.6°
Reaches altitude 10° 17:24:41 10° 159° (SSE) 2,436 5.9 -21.0°
Maximum altitude 17:30:05 80° 73° (ENE) 861 3.5 -21.9°
Drops below altitude 10° 17:35:36 10° 348° (NNW) 2,487 6.2 -22.9°
Sets 17:38:00 0° 347° (NNW) 3,433 7.0 -23.3°
